Weather History for Eureka, NV

Change the Weather History Date:

Wednesday, December 19, 2012

  Actual Average Record
Temperature  
Mean Temperature 9 °F 24 °F  
Max Temperature 22 °F 37 °F 60 °F (1979)
Min Temperature -4 °F 10 °F -9 °F (1965)
Degree Days  
Heating Degree Days 56 41  
Month to date heating degree days 626 746  
Since 1 July heating degree days 1922 2505  
Cooling Degree Days 0 0  
Month to date cooling degree days 0 0  
Year to date cooling degree days 529 288  
Moisture  
Dew Point 4 °F    
Average Humidity 72    
Maximum Humidity 87    
Minimum Humidity 57    
Precipitation  
Precipitation 0.00 in 0.02 in 0.31 in (2013)
Month to date precipitation 0.52 0.36  
Year to date precipitation 6.44 8.75  
Sea Level Pressure  
Sea Level Pressure 30.32 in    
Wind  
Wind Speed 6 mph (SSW)    
Max Wind Speed 13 mph    
Max Gust Speed 16 mph    
T = Trace of Precipitation, MM = Missing Value Source: NWS Daily Summary

Daily Weather History Graph

Daily Weather History Graph

Search for Another Location

Airport:

Trip Planner

Search our weather history database for the weather conditions in past years. The results will help you decide how hot, cold, wet, or windy it might be!

Date:

Astronomy

Dec. 19, 2012 Rise Set
Actual Time 7:00 AM PST 4:22 PM PST
Civil Twilight 6:30 AM PST 4:52 PM PST
Nautical Twilight 5:56 AM PST 5:26 PM PST
Astronomical Twilight 5:23 AM PST 5:59 PM PST
Moon 11:12 AM PST (12/19) 11:53 PM PST (12/19)
Length of Visible Light 10h 22m
Length of Day
9h 22m
Waxing Crescent, 46% of the Moon is Illuminated
Dec 19
Waxing Crescent
Dec 19
First Quarter
Dec 28
Full
Jan 4
Last Quarter
Jan 11
New

Hourly Weather History & Observations

Time (PST) Temp. Windchill Dew Point Humidity Pressure Visibility Wind Dir Wind Speed Gust Speed Precip Events Conditions
12:53 AM 1.9 °F -9.2 °F -2.9 °F 80% 30.06 in - SSE 5.8 mph - N/A   Unknown
1:53 AM 1.9 °F -7.6 °F -2.0 °F 83% 30.09 in - SSW 4.6 mph - N/A   Unknown
2:53 AM -0.0 °F -11.6 °F -5.1 °F 79% 30.13 in - South 5.8 mph - N/A   Unknown
3:53 AM -2.9 °F -13.3 °F -7.1 °F 82% 30.18 in - South 4.6 mph - N/A   Unknown
4:53 AM 3.0 °F - -2.0 °F 80% 30.19 in - Calm Calm - N/A   Unknown
5:53 AM 8.1 °F -0.5 °F 3.9 °F 83% 30.21 in - SSW 4.6 mph - N/A   Unknown
6:53 AM 7.0 °F -1.7 °F 1.9 °F 80% 30.25 in - South 4.6 mph - N/A   Unknown
7:53 AM 3.0 °F -9.3 °F -0.9 °F 84% 30.29 in - SSW 6.9 mph - N/A   Unknown
8:53 AM 10.0 °F 3.6 °F 3.9 °F 76% 30.29 in - SSW 3.5 mph - N/A   Unknown
9:53 AM 15.1 °F 6.4 °F 8.1 °F 74% 30.32 in - SW 5.8 mph - N/A   Unknown
10:53 AM 18.0 °F 9.8 °F 10.0 °F 71% 30.35 in - SW 5.8 mph - N/A   Unknown
11:53 AM 19.9 °F 14.9 °F 10.0 °F 65% 30.37 in - SSW 3.5 mph - N/A   Unknown
12:53 PM 19.9 °F 11.1 °F 10.0 °F 65% 30.37 in - South 6.9 mph - N/A   Unknown
1:53 PM 21.0 °F 13.4 °F 9.0 °F 60% 30.37 in - SW 5.8 mph - N/A   Unknown
2:53 PM 21.9 °F 17.2 °F 10.0 °F 60% 30.38 in - SSW 3.5 mph - N/A   Unknown
3:53 PM 19.9 °F - 9.0 °F 62% 30.40 in - Calm Calm - N/A   Unknown
4:53 PM 10.0 °F 0.4 °F 5.0 °F 80% 30.43 in - SSE 5.8 mph - N/A   Unknown
5:53 PM 10.0 °F -1.9 °F 5.0 °F 80% 30.42 in - South 8.1 mph - N/A   Unknown
6:53 PM 12.0 °F 1.5 °F 5.0 °F 73% 30.43 in - SSE 6.9 mph - N/A   Unknown
7:53 PM 12.0 °F 0.5 °F 5.0 °F 73% 30.45 in - South 8.1 mph - N/A   Unknown
8:53 PM 9.0 °F -4.2 °F 3.0 °F 77% 30.43 in - SW 9.2 mph - N/A   Unknown
9:53 PM 10.9 °F -1.8 °F 3.9 °F 73% 30.41 in - SSW 9.2 mph - N/A   Unknown
10:53 PM 8.1 °F -3.2 °F 3.0 °F 80% 30.41 in - SSW 6.9 mph - N/A   Unknown
11:53 PM 7.0 °F -5.7 °F 1.9 °F 80% 30.40 in - WSW 8.1 mph - N/A   Unknown